TimePDT,TemperatureF,Dew PointF,Humidity,Sea Level PressureIn,VisibilityMPH,Wind Direction,Wind SpeedMPH,Gust SpeedMPH,PrecipitationIn,Events,Conditions,WindDirDegrees,DateUTC
12:53 AM,63.0,50.0,63,29.80,10.0,NW,9.2,-,N/A,,Clear,310,2012-10-21 07:53:00
1:53 AM,62.1,48.0,60,29.80,10.0,NW,8.1,-,N/A,,Clear,320,2012-10-21 08:53:00
2:53 AM,59.0,48.9,69,29.81,10.0,NW,10.4,-,N/A,,Clear,320,2012-10-21 09:53:00
3:53 AM,57.0,48.0,72,29.80,10.0,NNW,5.8,-,N/A,,Clear,340,2012-10-21 10:53:00
4:53 AM,57.0,46.9,69,29.80,10.0,NW,8.1,-,N/A,,Clear,320,2012-10-21 11:53:00
5:53 AM,55.9,46.9,72,29.82,10.0,NNW,4.6,-,N/A,,Clear,330,2012-10-21 12:53:00
6:53 AM,55.0,46.0,72,29.84,10.0,NW,5.8,-,N/A,,Scattered Clouds,310,2012-10-21 13:53:00
7:53 AM,55.9,46.0,69,29.86,10.0,Calm,Calm,-,N/A,,Scattered Clouds,0,2012-10-21 14:53:00
8:53 AM,57.9,45.0,62,29.89,10.0,Calm,Calm,-,N/A,,Scattered Clouds,0,2012-10-21 15:53:00
9:53 AM,64.4,42.8,45,29.90,10.0,Calm,Calm,-,N/A,,Scattered Clouds,0,2012-10-21 16:53:00
10:53 AM,68.0,43.0,40,29.91,10.0,WNW,6.9,-,N/A,,Scattered Clouds,290,2012-10-21 17:53:00
11:53 AM,70.0,39.9,33,29.89,10.0,NNW,4.6,-,N/A,,Scattered Clouds,330,2012-10-21 18:53:00
12:53 PM,73.0,37.0,27,29.87,10.0,Calm,Calm,-,N/A,,Scattered Clouds,0,2012-10-21 19:53:00
1:53 PM,75.0,41.0,29,29.86,10.0,NW,5.8,-,N/A,,Mostly Cloudy,320,2012-10-21 20:53:00
2:53 PM,75.0,37.0,25,29.84,10.0,Variable,3.5,-,N/A,,Scattered Clouds,0,2012-10-21 21:53:00
3:53 PM,75.9,28.9,18,29.83,10.0,WNW,6.9,-,N/A,,Scattered Clouds,290,2012-10-21 22:53:00
4:53 PM,75.0,27.0,17,29.83,10.0,NW,8.1,-,N/A,,Scattered Clouds,310,2012-10-21 23:53:00
5:53 PM,73.9,24.1,16,29.83,10.0,WNW,5.8,-,N/A,,Mostly Cloudy,300,2012-10-22 00:53:00
6:53 PM,72.0,21.9,15,29.83,10.0,NNW,3.5,-,N/A,,Mostly Cloudy,330,2012-10-22 01:53:00
7:53 PM,68.0,30.0,24,29.84,10.0,NW,5.8,-,N/A,,Mostly Cloudy,310,2012-10-22 02:53:00
8:53 PM,66.0,35.1,32,29.84,10.0,WNW,4.6,-,N/A,,Mostly Cloudy,300,2012-10-22 03:53:00
9:53 PM,64.9,30.9,28,29.84,10.0,NNW,5.8,-,N/A,,Mostly Cloudy,330,2012-10-22 04:53:00
10:53 PM,64.0,32.0,30,29.83,10.0,Calm,Calm,-,N/A,,Mostly Cloudy,0,2012-10-22 05:53:00
11:53 PM,63.0,34.0,34,29.83,10.0,Calm,Calm,-,N/A,,Mostly Cloudy,0,2012-10-22 06:53:00